• In Russia
  • List of Countries
  • For 7 days
  • Water Temperature
  • Satellite Maps
  • Weather Map
  • Weather Widgets
  • user-avatar
    Login

    Hourly Weather Granada

    Today, 19 September, Wednesday

    Time Temperature Precipitation Wind Pressure Humidity
    00:00 +24°C° 0 mm 1 mps 704 mmHg 59%
    01:00 +24°C° 0 mm 1 mps 704 mmHg 59%
    02:00 +23°C° 0 mm 1 mps 704 mmHg 59%
    03:00 +23°C° 0 mm 1 mps 703 mmHg 59%
    04:00 +23°C° 0 mm 1 mps 703 mmHg 60%
    05:00 +22°C° 0 mm 1 mps 703 mmHg 60%
    06:00 +22°C° 0 mm 1 mps 704 mmHg 60%
    07:00 +24°C° 0 mm 1 mps 704 mmHg 55%
    08:00 +25°C° 0 mm 1 mps 705 mmHg 51%
    09:00 +27°C° 0 mm 1 mps 705 mmHg 46%
    10:00 +28°C° 0 mm 1 mps 705 mmHg 44%
    11:00 +29°C° 0 mm 1 mps 705 mmHg 41%
    12:00 +29°C° 0 mm 1 mps 705 mmHg 39%
    13:00 +30°C° 0 mm 1 mps 705 mmHg 39%
    14:00 +30°C° 0 mm 1 mps 705 mmHg 39%
    15:00 +30°C° 0 mm 1 mps 705 mmHg 39%
    16:00 +29°C° 0.1 mm 1 mps 705 mmHg 41%
    17:00 +29°C° 0.1 mm 1 mps 705 mmHg 44%
    18:00 +28°C° 0.1 mm 1 mps 705 mmHg 46%
    19:00 +27°C° 0.1 mm 1 mps 705 mmHg 50%
    20:00 +26°C° 0.1 mm 1 mps 705 mmHg 53%
    21:00 +26°C° 0.1 mm 1 mps 705 mmHg 56%
    22:00 +25°C° 0 mm 1 mps 705 mmHg 58%
    23:00 +24°C° 0 mm 1 mps 705 mmHg 61%

    Tomorrow, 20 September, Thursday

    Time Temperature Precipitation Wind Pressure Humidity
    00:00 +24°C° 0 mm 1 mps 705 mmHg 63%
    01:00 +23°C° 0 mm 1 mps 705 mmHg 64%
    02:00 +23°C° 0 mm 1 mps 704 mmHg 66%
    03:00 +23°C° 0 mm 1 mps 704 mmHg 67%
    04:00 +22°C° 0 mm 1 mps 704 mmHg 68%
    05:00 +22°C° 0 mm 1 mps 704 mmHg 70%
    06:00 +21°C° 0 mm 1 mps 704 mmHg 71%
    07:00 +23°C° 0 mm 1 mps 704 mmHg 64%
    08:00 +25°C° 0 mm 1 mps 705 mmHg 57%
    09:00 +26°C° 0 mm 1 mps 705 mmHg 50%
    10:00 +27°C° 0 mm 2 mps 705 mmHg 47%
    11:00 +28°C° 0 mm 2 mps 705 mmHg 43%
    12:00 +29°C° 0 mm 2 mps 705 mmHg 39%
    13:00 +29°C° 0.2 mm 2 mps 705 mmHg 39%
    14:00 +29°C° 0.2 mm 2 mps 704 mmHg 39%
    15:00 +30°C° 0.2 mm 2 mps 704 mmHg 39%
    16:00 +29°C° 0.2 mm 2 mps 704 mmHg 43%
    17:00 +28°C° 0.2 mm 2 mps 704 mmHg 46%
    18:00 +27°C° 0.2 mm 1 mps 704 mmHg 50%
    19:00 +26°C° 0.1 mm 1 mps 704 mmHg 53%
    20:00 +26°C° 0.1 mm 1 mps 704 mmHg 57%
    21:00 +25°C° 0.1 mm 1 mps 704 mmHg 61%
    22:00 +24°C° 0 mm 1 mps 704 mmHg 62%
    23:00 +24°C° 0 mm 1 mps 704 mmHg 63%

    Day after tomorrow, 21 September, Friday

    Time Temperature Precipitation Wind Pressure Humidity
    00:00 +23°C° 0 mm 1 mps 704 mmHg 64%
    01:00 +23°C° 0 mm 1 mps 704 mmHg 63%
    02:00 +21°C° 0 mm 0 mps 703 mmHg 63%
    03:00 +20°C° 0 mm 0 mps 703 mmHg 62%
    04:00 +20°C° 0 mm 0 mps 703 mmHg 61%
    05:00 +22°C° 0 mm 1 mps 703 mmHg 59%
    06:00 +22°C° 0 mm 1 mps 703 mmHg 57%
    07:00 +23°C° 0 mm 1 mps 704 mmHg 52%
    08:00 +25°C° 0 mm 1 mps 704 mmHg 47%
    09:00 +25°C° 0 mm 0 mps 705 mmHg 41%
    10:00 +28°C° 0 mm 1 mps 705 mmHg 40%
    11:00 +29°C° 0 mm 1 mps 705 mmHg 38%
    12:00 +30°C° 0 mm 1 mps 705 mmHg 37%
    13:00 +30°C° 0.1 mm 1 mps 705 mmHg 36%
    14:00 +30°C° 0.1 mm 1 mps 704 mmHg 35%
    15:00 +31°C° 0.1 mm 2 mps 704 mmHg 35%
    16:00 +30°C° 0 mm 1 mps 704 mmHg 37%
    17:00 +29°C° 0 mm 1 mps 704 mmHg 39%
    18:00 +28°C° 0 mm 1 mps 704 mmHg 42%
    19:00 +28°C° 0 mm 1 mps 704 mmHg 43%
    20:00 +27°C° 0 mm 1 mps 705 mmHg 45%
    21:00 +26°C° 0 mm 1 mps 705 mmHg 46%
    22:00 +26°C° 0 mm 1 mps 705 mmHg 46%
    23:00 +25°C° 0 mm 1 mps 705 mmHg 46%

    22 September, Saturday

    Time Temperature Precipitation Wind Pressure Humidity
    00:00 +25°C° 0 mm 1 mps 705 mmHg 46%
    01:00 +24°C° 0 mm 1 mps 705 mmHg 46%
    02:00 +24°C° 0 mm 1 mps 705 mmHg 45%
    03:00 +24°C° 0 mm 1 mps 704 mmHg 45%
    04:00 +24°C° 0 mm 1 mps 705 mmHg 44%
    05:00 +23°C° 0 mm 1 mps 705 mmHg 44%
    06:00 +23°C° 0 mm 1 mps 705 mmHg 43%
    07:00 +25°C° 0 mm 1 mps 705 mmHg 40%
    08:00 +27°C° 0 mm 1 mps 706 mmHg 37%
    09:00 +29°C° 0 mm 1 mps 707 mmHg 34%
    10:00 +29°C° 0 mm 1 mps 707 mmHg 34%
    11:00 +30°C° 0 mm 1 mps 707 mmHg 33%
    12:00 +31°C° 0 mm 2 mps 707 mmHg 32%
    13:00 +31°C° 0 mm 2 mps 707 mmHg 32%
    14:00 +31°C° 0 mm 2 mps 706 mmHg 32%
    15:00 +32°C° 0 mm 2 mps 706 mmHg 32%
    16:00 +31°C° 0 mm 2 mps 706 mmHg 36%
    17:00 +30°C° 0 mm 1 mps 706 mmHg 39%
    18:00 +29°C° 0 mm 1 mps 706 mmHg 42%
    19:00 +28°C° 0 mm 1 mps 706 mmHg 45%
    20:00 +27°C° 0 mm 1 mps 707 mmHg 49%
    21:00 +26°C° 0 mm 1 mps 707 mmHg 52%
    22:00 +26°C° 0 mm 1 mps 707 mmHg 54%
    23:00 +25°C° 0 mm 1 mps 707 mmHg 56%

    23 September, Sunday

    Time Temperature Precipitation Wind Pressure Humidity
    00:00 +25°C° 0 mm 1 mps 706 mmHg 59%
    01:00 +24°C° 0 mm 1 mps 706 mmHg 59%
    02:00 +24°C° 0 mm 1 mps 706 mmHg 60%
    03:00 +24°C° 0 mm 1 mps 706 mmHg 61%
    04:00 +23°C° 0 mm 1 mps 706 mmHg 60%
    05:00 +23°C° 0 mm 1 mps 706 mmHg 60%
    06:00 +23°C° 0 mm 1 mps 706 mmHg 60%
    07:00 +25°C° 0 mm 1 mps 706 mmHg 53%
    08:00 +27°C° 0 mm 1 mps 706 mmHg 46%
    09:00 +29°C° 0 mm 1 mps 707 mmHg 40%
    10:00 +30°C° 0 mm 1 mps 707 mmHg 37%
    11:00 +31°C° 0 mm 1 mps 707 mmHg 34%
    12:00 +32°C° 0 mm 1 mps 707 mmHg 32%
    13:00 +32°C° 0 mm 1 mps 706 mmHg 31%
    14:00 +32°C° 0 mm 2 mps 706 mmHg 31%
    15:00 +32°C° 0 mm 2 mps 706 mmHg 30%
    16:00 +32°C° 0 mm 1 mps 705 mmHg 32%
    17:00 +31°C° 0 mm 1 mps 705 mmHg 35%
    18:00 +30°C° 0 mm 1 mps 705 mmHg 37%
    19:00 +29°C° 0 mm 1 mps 705 mmHg 38%
    20:00 +28°C° 0 mm 1 mps 706 mmHg 38%
    21:00 +27°C° 0 mm 1 mps 706 mmHg 39%
    22:00 +27°C° 0 mm 1 mps 705 mmHg 39%
    23:00 +27°C° 0 mm 1 mps 705 mmHg 38%

    24 September, Monday

    Time Temperature Precipitation Wind Pressure Humidity
    00:00 +26°C° 0 mm 1 mps 705 mmHg 38%
    01:00 +26°C° 0 mm 1 mps 704 mmHg 38%
    02:00 +25°C° 0 mm 1 mps 704 mmHg 38%
    03:00 +25°C° 0 mm 1 mps 704 mmHg 38%
    04:00 +25°C° 0 mm 1 mps 704 mmHg 38%
    05:00 +24°C° 0 mm 1 mps 704 mmHg 38%
    06:00 +24°C° 0 mm 1 mps 704 mmHg 39%
    07:00 +26°C° 0 mm 1 mps 704 mmHg 35%
    08:00 +28°C° 0 mm 1 mps 705 mmHg 32%
    09:00 +30°C° 0 mm 1 mps 705 mmHg 28%
    10:00 +31°C° 0 mm 1 mps 706 mmHg 28%
    11:00 +31°C° 0 mm 2 mps 706 mmHg 28%
    12:00 +32°C° 0 mm 2 mps 706 mmHg 28%
    13:00 +33°C° 0 mm 3 mps 705 mmHg 30%
    14:00 +33°C° 0 mm 3 mps 705 mmHg 32%
    15:00 +33°C° 0 mm 3 mps 705 mmHg 34%
    16:00 +31°C° 0 mm 3 mps 704 mmHg 40%
    17:00 +29°C° 0 mm 3 mps 704 mmHg 46%
    18:00 +28°C° 0 mm 3 mps 704 mmHg 52%
    19:00 +27°C° 0 mm 3 mps 705 mmHg 58%
    20:00 +26°C° 0 mm 2 mps 705 mmHg 64%
    21:00 +25°C° 0 mm 2 mps 705 mmHg 70%
    22:00 +24°C° 0 mm 2 mps 705 mmHg 74%
    23:00 +24°C° 0 mm 2 mps 705 mmHg 77%
    Show more